Regional Weather Roundup
Issued by NWS

Home | Current Version | Previous Version | Graphics & Text | Print | Product List | Glossary On
Versions: 1 2 3 4 5 6 7 8 9 10 11 12 13 14 15 16 17 18 19 20 21 22 23 24 25 26 27 28 29 30 31 32 33 34 35 36 37 38 39 40 41 42 43 44 45 46 47 48 49 50
000
ASUS43 KLOT 241808
RWRIL

ILLINOIS REGIONAL WEATHER ROUNDUP
NATIONAL WEATHER SERVICE CHICAGO/ROMEOVILLE IL
100 PM CDT SUN MAY 24 2015

NOTE: "FAIR" INDICATES FEW OR NO CLOUDS BELOW 12,000 FEET WITH NO
SIGNIFICANT WEATHER AND/OR OBSTRUCTIONS TO VISIBILITY.

* THESE STATIONS ARE NOT UNDER NWS QUALITY CONTROL. THEY ALSO MAY NOT
  REPORT WEATHER SUCH AS PRECIPITATION OR FOG.

ILZ001-002-007-009-015-016-024-241900-
NORTHWEST ILLINOIS

CITY           SKY/WX    TMP DP  RH WIND       PRES   REMARKS
MOLINE         LGT RAIN  67  63  87 E8        29.97F
6HR MIN TEMP:  59; 6HR MAX TEMP:  67; 6HR PCP:  0.29;

STERLING*      CLOUDY    72  61  68 E16G22    30.01F
SAVANNA*       RAIN      64  59  84 NE7       30.01F
$$

ILZ003-004-008-010-011-017-018-241900-
NORTH CENTRAL ILLINOIS

CITY           SKY/WX    TMP DP  RH WIND       PRES   REMARKS
ROCKFORD       CLOUDY    70  55  59 E13       30.06F
6HR MIN TEMP:  61; 6HR MAX TEMP:  70; 6HR PCP:  0.07;

FREEPORT*      LGT RAIN  63  58  86 E9        30.07F
ROCHELLE*      CLOUDY    70  56  61 E20       30.05F
DE KALB*       CLOUDY    68  55  62 E13       30.08F
PERU*          CLOUDY    77  60  56 E9        30.02F
$$

ILZ005-006-012>014-019>023-241900-
NORTHEAST ILLINOIS

CITY           SKY/WX    TMP DP  RH WIND       PRES   REMARKS
CHICAGO-OHARE  CLOUDY    71  51  49 E10       30.09F
6HR MIN TEMP:  62; 6HR MAX TEMP:  72; 6HR PCP: TRACE;

CHICAGO-MIDWAY CLOUDY    74  55  51 E8        30.10F
6HR MIN TEMP:  62; 6HR MAX TEMP:  75; 6HR PCP:  0.03;

AURORA         CLOUDY    72  55  55 E15       30.07F
6HR MIN TEMP:  61; 6HR MAX TEMP:  72; 6HR PCP: TRACE;

LANSING*       CLOUDY    75  54  48 SE8       30.10F
JOLIET*        CLOUDY    78  60  54 E8        30.07F
WAUKEGAN       CLOUDY    63  52  67 E9        30.12F
6HR MIN TEMP:  59; 6HR MAX TEMP:  65; 6HR PCP: TRACE;

DUPAGE AIRPORT CLOUDY    71  54  54 E8        30.08F
6HR MIN TEMP:  60; 6HR MAX TEMP:  71; 6HR PCP: TRACE;

KANKAKEE*      PTSUNNY   81  61  49 SE12      30.07F HX  82
WHEELING       CLOUDY    67  50  54 E9        30.12F
6HR MIN TEMP:  61; 6HR MAX TEMP:  70; 6HR PCP:  0.02;

MORRIS*        CLOUDY    79  57  47 SE13      30.04F HX  80
ROMEOVILLE*    CLOUDY    74  56  53 SE9       30.08F
NORTHERLY ISL    N/A     60  51  72 NE3         N/A
$$

LMZ740>746-241900-
SOUTHERN LAKE MICHIGAN

STATION/POSITION SKY/WX   TEMP    WIND        PRES    VSBY  WAVE
                          AIR SEA DIR/SP/G                  HT/PER
                          (F)     (DEG/KT/KT) (MB)    (MI)  (FT/S)
SOUTHERN BUOY              42 38   60/  4/  4 1022.0F         0
HARRISON CRIB              57      70/  4/  5   N/A
BURNHAM HARBOR             60      40/  3/  6   N/A
CALUMET HARBOR             63      80/  5/  8   N/A
BURNS HARBOR               75     150/  9/ 15 1021.0F
MICHIGAN CITY              72     100/  9/ 11   N/A
MICHIGAN CITY 6N           64 54  120/  6/  8   N/A           0
ST. JOSEPH                 65 56  120/  4/  4   N/A           0
$$

ILZ025>027-034>036-040-047-049-050-058-095>099-241900-
WEST-CENTRAL ILLINOIS

CITY           SKY/WX    TMP DP  RH WIND       PRES   REMARKS
QUINCY         PTSUNNY   78  64  61 S14G29    29.94F HX  80
GALESBURG*     CLOUDY    75  64  67 S12G17    29.97F
MACOMB*        CLOUDY    77  64  64 S21       29.98F
JACKSONVILLE*  PTSUNNY   80  65  59 SE22G29   29.99F HX  82
PITTSFIELD*    CLOUDY    79  64  59 S13G24    29.97F HX  81
$$

ILZ028>032-037-038-041>044-048-051>054-059>061-241900-
CENTRAL ILLINOIS

CITY           SKY/WX    TMP DP  RH WIND       PRES   REMARKS
PONTIAC        LGT RAIN  81  62  52 S25       30.05F HX  82
BLOOMINGTON    PTSUNNY   80  66  62 S23       30.05F HX  82
DECATUR        PTSUNNY   82  64  54 S17G30    30.05F HX  83
PEORIA         LGT RAIN  76  69  79 S10G23    30.01F
6HR MIN TEMP:  66; 6HR MAX TEMP:  81; 6HR PCP:  0.16;

LACON*         PTSUNNY   79  62  55 S9        29.99F HX  80
LINCOLN*       PTSUNNY   83  63  50 S20G26    30.00F HX  84
SPRINGFIELD    MOSUNNY   86  66  51 S20G26    30.01F HX  88
6HR MIN TEMP:  66; 6HR MAX TEMP:  86; 6HR PCP: TRACE;

TAYLORVILLE    MOSUNNY   81  64  57 S17G28    30.04F HX  82
$$

ILZ033-039-045-046-055>057-062-063-241900-
EAST-CENTRAL ILLINOIS

CITY           SKY/WX    TMP DP  RH WIND       PRES   REMARKS
CHAMPAIGN      PTSUNNY   85  60  42 S22G31    30.07F HX  85
DANVILLE*      CLOUDY    83  60  46 S13G18    30.08F HX  83
RANTOUL*       PTSUNNY   85  61  44 S20G25    30.08F HX  85
MATTOON        PTSUNNY   79  61  53 S16G22    30.09F HX  80
PARIS*         MOSUNNY   84  60  44 S16G23    30.12F HX  84
$$

ILZ079-100>102-241900-
SOUTHWEST ILLINOIS

CITY           SKY/WX    TMP DP  RH WIND       PRES   REMARKS
BELLEVILLE     PTSUNNY   83  66  56 S23G31    30.01F HX  85
CAHOKIA*       LGT RAIN  85  62  46 S14G26    30.00F HX  85
SPARTA*        PTSUNNY   79  66  63 S14G28    30.06S HX  81
$$

ILZ064>066-069>071-074>076-080>082-084>086-088>090-092>094-241900-
SOUTH-CENTRAL ILLINOIS

CITY           SKY/WX    TMP DP  RH WIND       PRES   REMARKS
CARBONDALE     PTSUNNY   84  66  54 S16G23    30.06F HX  86
6HR MIN TEMP:  66; 6HR MAX TEMP:  84;

CAIRO*         MOSUNNY   84  63  49 S18G25    30.07F HX  85
EFFINGHAM*     MOSUNNY   83  59  44 S15G22    30.10F HX  82
MARION         PTSUNNY   82  68  61 S15G21    30.08F HX  85
MT. VERNON     PTSUNNY   82  64  54 S14G21    30.09F HX  84
CENTRALIA*     MOSUNNY   83  62  48 S16G23    30.07S HX  84
SALEM*         PTSUNNY   84  63  48 S17G24    30.08S HX  85
METROPOLIS*    MOSUNNY   84  64  49 S10       30.09F HX  85
$$

ILZ067-068-072-073-078-083-087-091-241900-
SOUTHEAST ILLINOIS

CITY           SKY/WX    TMP DP  RH WIND       PRES   REMARKS
LAWRENCEVILLE  CLOUDY    82  59  45 S16       30.13F HX  82
FLORA*         SUNNY     83  62  49 S18       30.10F HX  83
FAIRFIELD*     CLOUDY    82  63  51 S14G21    30.09F HX  83
HARRISBURG*    MOSUNNY   83  63  51 S13G22    30.11F HX  84
ROBINSON*      PTSUNNY   83  58  42 S14G20    30.14S HX  82
CARMI*         CLOUDY    82  55  39 S12G21    30.11F HX  82
$$

ABBREVIATIONS USED IN REMARKS
   TC - TEMPERATURE IN CELSIUS
  WCI - WIND CHILL INDEX
   HX - HEAT INDEX
  VSB - VISIBILITY
$$




USA.gov is the U.S. government's official web portal to all federal, state and local government web resources and services.